CDT,Max TemperatureF,Mean TemperatureF,Min TemperatureF,Max Dew PointF,MeanDew PointF,Min DewpointF,Max Humidity, Mean Humidity, Min Humidity, Max Sea Level PressureIn, Mean Sea Level PressureIn, Min Sea Level PressureIn, Max VisibilityMiles, Mean VisibilityMiles, Min VisibilityMiles, Max Wind SpeedMPH, Mean Wind SpeedMPH, Max Gust SpeedMPH,PrecipitationIn, CloudCover, Events, WindDirDegrees
2013-3-1,30,28,26,22,19,15,81,72,63,30.35,30.25,30.15,10,7,2,17,10,21,0.01,8,Snow,1
2013-3-2,32,25,18,18,16,13,80,67,53,30.37,30.30,30.22,10,10,10,15,7,18,0.00,4,,296
2013-3-3,36,29,22,23,18,15,77,62,47,30.20,30.04,29.91,10,10,7,18,11,24,0.02,7,Rain-Snow,129
2013-3-4,39,34,29,30,27,24,85,75,64,29.97,29.86,29.78,10,8,1,17,12,28,0.01,8,Snow,92
2013-3-5,33,30,27,30,23,19,92,81,69,30.32,30.06,29.94,10,6,1,33,16,39,0.07,7,Snow,312
2013-3-6,33,27,20,20,18,16,81,70,59,30.45,30.39,30.33,10,10,9,22,9,26,T,5,Snow,357
2013-3-7,35,27,18,23,19,14,92,74,56,30.40,30.35,30.29,10,8,4,15,9,20,0.00,3,,118
2013-3-8,44,35,26,32,27,21,81,69,57,30.31,30.22,30.06,10,8,4,20,12,24,0.08,5,Rain,124
2013-3-9,44,41,38,43,37,32,96,86,76,30.03,29.82,29.64,9,4,0,20,10,25,0.42,8,Fog-Rain-Thunderstorm,122
2013-3-10,40,36,32,39,33,28,96,91,85,29.79,29.72,29.63,10,2,0,23,14,30,0.51,8,Fog-Rain-Snow,354
2013-3-11,32,28,23,29,23,18,92,81,69,29.99,29.81,29.73,10,5,1,25,14,29,0.04,8,Snow,314
2013-3-12,35,28,20,24,20,15,84,73,61,30.29,30.12,29.99,10,9,2,38,15,46,T,5,Snow,297
2013-3-13,33,26,18,19,15,12,80,62,43,30.49,30.41,30.32,10,10,10,17,8,21,0.00,1,,304
2013-3-14,52,40,28,35,28,18,76,63,50,30.32,30.16,30.09,10,10,7,15,8,18,0.01,5,,217
2013-3-15,63,48,32,44,36,28,89,70,51,30.08,29.86,29.72,10,7,4,14,6,17,0.00,6,,104
2013-3-16,39,34,28,34,26,19,85,70,54,30.23,30.03,29.82,10,8,3,25,14,31,0.00,8,,352
2013-3-17,41,32,23,27,21,16,74,61,48,30.21,30.04,29.86,10,10,9,22,12,28,T,6,Snow,90
2013-3-18,36,29,22,32,26,12,92,73,53,30.02,29.81,29.73,10,5,0,27,17,40,0.12,6,Fog-Rain-Snow,209
2013-3-19,41,30,18,19,12,5,75,54,32,30.29,30.18,30.03,10,10,10,24,13,32,T,3,,314
2013-3-20,30,23,16,16,8,2,68,54,39,30.37,30.29,30.18,10,9,6,28,15,35,T,4,Snow,327
2013-3-21,38,26,14,16,9,3,68,50,32,30.17,30.09,30.00,10,10,10,13,7,17,0.00,3,,63
2013-3-22,39,30,20,23,16,13,77,59,40,30.10,30.07,30.02,10,10,10,13,6,15,T,5,Snow,73
2013-3-23,41,35,29,29,23,16,85,61,37,30.15,30.09,30.03,10,6,0,16,8,19,0.09,8,Snow,30
2013-3-24,32,30,28,27,26,23,85,76,66,30.05,29.96,29.90,9,2,0,20,13,26,0.13,8,Fog-Snow,349
2013-3-25,37,33,28,27,23,17,92,70,47,30.29,30.07,29.97,10,6,1,23,13,33,0.03,8,Snow,335
2013-3-26,38,31,23,21,19,16,75,64,52,30.38,30.34,30.30,10,10,10,17,9,20,0.00,2,,278
2013-3-27,47,36,25,26,22,19,75,57,38,30.38,30.34,30.27,10,10,9,13,6,16,0.00,3,,136
2013-3-28,58,45,31,33,29,25,85,61,36,30.33,30.29,30.23,10,10,10,16,7,20,0.00,3,,107
2013-3-29,64,50,35,34,32,30,82,56,30,30.30,30.22,30.13,10,10,7,15,8,21,0.00,2,,127
2013-3-30,61,53,44,50,44,34,93,77,60,30.10,29.96,29.87,10,7,2,17,7,20,0.13,7,Rain,160
2013-3-31,55,44,33,42,33,16,92,60,28,30.11,29.94,29.90,10,5,0,29,13,36,T,5,Fog-Snow,316